LKMT Weather Reports


time (UTC)temp
C
wind
direction
speed
KPH
gust
KPH
rain 1hr
cm
rain 24hr
cm
rain mn
cm
humidity
%
barometer
mb
20260506203222 20 190 22.5 0.0 0.00 0.00 0.00 49 1006.0
20260506202228 20 190 22.5 0.0 0.00 0.00 0.00 45
20260506200239 20 190 20.9 0.0 0.00 0.00 0.00 49 1006.0
20260506193232 21 190 24.1 0.0 0.00 0.00 0.00 46 1006.0
20260506192404 21 190 19.3 0.0 0.00 0.00 0.00 46
20260506190253 21 190 16.1 0.0 0.00 0.00 0.00 46 1005.0
20260506183245 21 190 16.1 0.0 0.00 0.00 0.00 46 1005.0
20260506182301 22 180 14.5 0.0 0.00 0.00 0.00 40
20260506180247 22 180 14.5 0.0 0.00 0.00 0.00 43 1005.0
20260506173238 22 180 16.1 0.0 0.00 0.00 0.00 43 1005.0
20260506172226 22 190 22.5 0.0 0.00 0.00 0.00 40
20260506170233 22 190 20.9 0.0 0.00 0.00 0.00 43 1005.0
20260506163238 22 190 19.3 0.0 0.00 0.00 0.00 43 1006.0
20260506162428 22 190 22.5 0.0 0.00 0.00 0.00 40
20260506160247 22 190 20.9 40.2 0.00 0.00 0.00 40 1006.0
20260506153238 22 190 24.1 0.0 0.00 0.00 0.00 40 1006.0
20260506152244 22 200 22.5 0.0 0.00 0.00 0.00 40
20260506150246 22 190 20.9 0.0 0.00 0.00 0.00 43 1006.0
20260506143238 23 210 24.1 0.0 0.00 0.00 0.00 41 1007.0
20260506142211 22 210 19.3 0.0 0.00 0.00 0.00 40
20260506140239 22 210 16.1 0.0 0.00 0.00 0.00 43 1007.0
20260506133238 23 220 24.1 0.0 0.00 0.00 0.00 41 1007.0
20260506132211 22 220 19.3 0.0 0.00 0.00 0.00 40
20260506130234 22 220 16.1 0.0 0.00 0.00 0.00 46 1007.0
20260506123230 22 200 19.3 0.0 0.00 0.00 0.00 40 1007.0
20260506122210 23 220 22.5 0.0 0.00 0.00 0.00 36
20260506120239 23 220 24.1 0.0 0.00 0.00 0.00 41 1007.0
20260506113230 22 230 27.4 0.0 0.00 0.00 0.00 43 1007.0
20260506112157 22 240 25.7 0.0 0.00 0.00 0.00 43
20260506110233 22 230 24.1 0.0 0.00 0.00 0.00 43 1007.0
20260506103230 22 230 29.0 0.0 0.00 0.00 0.00 46 1008.0
20260506102359 22 230 29.0 0.0 0.00 0.00 0.00 46
20260506100236 22 230 27.4 0.0 0.00 0.00 0.00 49 1008.0
20260506093231 21 250 27.4 0.0 0.00 0.00 0.00 49 1008.0
20260506092141 21 230 32.2 0.0 0.00 0.00 0.00 49
20260506090234 21 230 29.0 0.0 0.00 0.00 0.00 52 1008.0
20260506083230 20 200 29.0 0.0 0.00 0.00 0.00 56 1007.0
20260506082157 18 220 32.2 0.0 0.00 0.00 0.00 55
20260506080241 18 220 32.2 0.0 0.00 0.00 0.00 55 1007.0
20260506073230 18 210 29.0 0.0 0.00 0.00 0.00 55 1007.0
20260506072158 17 210 25.7 41.8 0.00 0.00 0.00 59
20260506070240 17 210 24.1 0.0 0.00 0.00 0.00 59 1007.0
20260506062230 17 220 22.5 0.0 0.00 0.00 0.00 59
20260506060234 17 220 20.9 0.0 0.00 0.00 0.00 59 1007.0
20260506050239 15 230 16.1 0.0 0.00 0.00 0.00 67 1007.0
20260506043224 13 240 16.1 0.0 0.00 0.00 0.00 71 1007.0
20260506042411 15 210 19.3 0.0 0.00 0.00 0.00 62
20260506040235 15 220 19.3 0.0 0.00 0.00 0.00 62 1006.0
20260506033216 15 190 20.9 0.0 0.00 0.00 0.00 62 1006.0
20260506032157 15 190 25.7 0.0 0.00 0.00 0.00 62
20260506030234 15 190 22.5 0.0 0.00 0.00 0.00 62 1006.0
20260506023223 15 200 19.3 0.0 0.00 0.00 0.00 62 1006.0
20260506022157 15 210 22.5 0.0 0.00 0.00 0.00 62
20260506020235 15 210 20.9 0.0 0.00 0.00 0.00 62 1006.0
20260506013224 16 220 11.3 0.0 0.00 0.00 0.00 59 1006.0
20260506012258 15 230 14.5 0.0 0.00 0.00 0.00 62
20260506010234 13 230 14.5 0.0 0.00 0.00 0.00 67 1006.0
20260506003230 16 210 22.5 0.0 0.00 0.00 0.00 55 1006.0
20260506002155 17 210 19.3 0.0 0.00 0.00 0.00 51
20260506000235 16 210 14.5 0.0 0.00 0.00 0.00 59 1006.0
20260505233223 17 190 14.5 0.0 0.00 0.00 0.00 51 1006.0
20260505232155 17 200 14.5 0.0 0.00 0.00 0.00 51
20260505230241 17 200 16.1 0.0 0.00 0.00 0.00 51 1006.0
20260505223223 17 200 16.1 0.0 0.00 0.00 0.00 45 1006.0
20260505222155 17 200 19.3 0.0 0.00 0.00 0.00 45
20260505220235 17 200 19.3 0.0 0.00 0.00 0.00 45 1006.0
20260505213223 17 190 14.5 0.0 0.00 0.00 0.00 42 1007.0
20260505212245 18 190 14.5 0.0 0.00 0.00 0.00 37
20260505210246 18 190 14.5 0.0 0.00 0.00 0.00 39 1007.0